Weather History for Cape Girardeau, MO

Change the Weather History Date:

Tuesday, May 7, 2013

  Actual Average Record
Temperature  
Mean Temperature 62 °F 64 °F  
Max Temperature 74 °F 75 °F 90 °F (1965)
Min Temperature 50 °F 53 °F 37 °F (1989)
Degree Days  
Heating Degree Days 3 3  
Month to date heating degree days 60 26  
Since 1 July heating degree days 4326 4344  
Cooling Degree Days 0 2  
Month to date cooling degree days 3 14  
Year to date cooling degree days 28 45  
Growing Degree Days 12 (Base 50)    
Moisture  
Dew Point 55 °F    
Average Humidity 79    
Maximum Humidity 100    
Minimum Humidity 57    
Precipitation  
Precipitation 0.00 in 0.20 in 2.54 in (1961)
Month to date precipitation 1.87 1.36  
Year to date precipitation 14.69 17.00  
Sea Level Pressure  
Sea Level Pressure 29.99 in    
Wind  
Wind Speed 4 mph (NW)    
Max Wind Speed 10 mph    
Max Gust Speed 13 mph    
Visibility 9 miles    
Events      
T = Trace of Precipitation, MM = Missing Value Source: NWS Daily Summary

Daily Weather History Graph

Daily Weather History Graph

Search for Another Location

Airport:

Trip Planner

Search our weather history database for the weather conditions in past years. The results will help you decide how hot, cold, wet, or windy it might be!

Date:

Astronomy

May. 07, 2013 Rise Set
Actual Time 5:56 AM CDT 7:53 PM CDT
Civil Twilight 5:28 AM CDT 8:21 PM CDT
Nautical Twilight 4:53 AM CDT 8:56 PM CDT
Astronomical Twilight 4:16 AM CDT 9:33 PM CDT
Moon 4:28 AM CDT (5/7) 5:55 PM CDT (5/7)
Length of Visible Light 14h 53m
Length of Day
13h 56m
Waning Crescent, 5% of the Moon is Illuminated
May 7
Waning Crescent
May 9
New
May 17
First Quarter
May 24
Full
May 31
Last Quarter

Hourly Weather History & Observations

Time (CDT) Temp. Dew Point Humidity Pressure Visibility Wind Dir Wind Speed Gust Speed Precip Events Conditions
12:53 AM 57.0 °F 54.0 °F 89% 29.95 in 10.0 mi Calm Calm - N/A   Clear
1:53 AM 54.0 °F 52.0 °F 93% 29.95 in 10.0 mi Calm Calm - N/A   Clear
2:53 AM 51.8 °F 51.8 °F 100% 29.95 in 10.0 mi NW 3.5 mph - N/A   Clear
3:53 AM 52.0 °F 51.1 °F 97% 29.95 in 8.0 mi Calm Calm - N/A   Clear
4:53 AM 51.1 °F 50.0 °F 96% 29.96 in 6.0 mi Calm Calm - N/A   Clear
5:53 AM 51.1 °F 50.0 °F 96% 29.96 in 4.0 mi WNW 5.8 mph - N/A   Clear
6:23 AM 50.0 °F 50.0 °F 100% 29.98 in 2.5 mi WSW 3.5 mph - N/A   Clear
6:36 AM 51.8 °F 51.8 °F 100% 29.98 in 4.0 mi Calm Calm - N/A   Clear
6:53 AM 55.0 °F 53.1 °F 93% 29.99 in 6.0 mi NE 3.5 mph - N/A   Clear
7:53 AM 60.1 °F 55.0 °F 83% 30.01 in 10.0 mi NE 5.8 mph - N/A   Clear
8:53 AM 63.0 °F 55.9 °F 78% 30.01 in 10.0 mi NE 5.8 mph - N/A   Clear
9:53 AM 66.0 °F 55.9 °F 70% 30.02 in 10.0 mi NE 9.2 mph - N/A   Clear
10:53 AM 68.0 °F 57.0 °F 68% 30.02 in 10.0 mi NNE 9.2 mph - N/A   Clear
11:53 AM 71.1 °F 55.9 °F 59% 30.02 in 10.0 mi Variable 5.8 mph - N/A   Partly Cloudy
12:53 PM 73.0 °F 57.0 °F 57% 30.01 in 10.0 mi NE 4.6 mph - N/A   Clear
1:53 PM 73.0 °F 57.0 °F 57% 30.00 in 10.0 mi ENE 9.2 mph - N/A   Overcast
2:53 PM 71.1 °F 57.0 °F 61% 29.99 in 10.0 mi Calm Calm - N/A   Overcast
3:53 PM 71.1 °F 57.9 °F 63% 29.99 in 10.0 mi WSW 3.5 mph - N/A   Overcast
4:53 PM 71.1 °F 60.1 °F 68% 29.98 in 10.0 mi Calm Calm - N/A   Overcast
5:53 PM 71.1 °F 60.1 °F 68% 29.98 in 10.0 mi West 3.5 mph - N/A   Overcast
6:53 PM 70.0 °F 61.0 °F 73% 29.97 in 10.0 mi West 3.5 mph - N/A   Mostly Cloudy
7:53 PM 64.9 °F 61.0 °F 87% 29.98 in 10.0 mi West 4.6 mph - N/A   Mostly Cloudy
8:53 PM 61.0 °F 57.9 °F 90% 29.99 in 10.0 mi WSW 3.5 mph - N/A   Clear
9:53 PM 57.9 °F 55.9 °F 93% 30.00 in 10.0 mi West 3.5 mph - N/A   Clear
10:53 PM 55.9 °F 55.0 °F 97% 30.00 in 10.0 mi Calm Calm - N/A   Clear
11:53 PM 55.0 °F 54.0 °F 96% 30.00 in 10.0 mi SW 4.6 mph - N/A   Clear